[[{"header":{"parameterUnit":"m.s-1","parameterCategory":2,"la1":30.2991,"la2":30.254,"lo1":-89.0895,"lo2":-89.0444,"dy":0.0017,"dx":0.0017,"nx":28,"ny":28,"refTime":"2025-08-02T21:00:00:Z","depth":"0","parameterNumber":2,"parameterNumberName":"U-component_of_CURRENTS"},"data":[0,0,0,0,0,0,0,0,0,0,0,0,0,0,0,0,0,0,0,0,0,0,0,0,0,0,0,0,0,0,0,0,0,0,0,0,0,0,0,0,0,0,0,0,0,0,0,0,0,0,0,0,0,0,0,0,0,0,0.3289,0.3289,0,0.3315,0.3315,0.3315,0.3286,0.3285,0.3284,0.3284,0.3353,0.3356,0.3358,0,0,0,0,0,0,0,0,0,0,0,0,0,0.323,0.323,0.3289,0.3289,0.329,0.3315,0.3315,0.3315,0.3286,0.3285,0.3284,0.3283,0.3352,0.3355,0.3359,0,0,0,0,0,0,0,0,0,0,0,0,0,0.3252,0.3231,0.3288,0.3281,0.3281,0.3315,0.3315,0.3315,0.3286,0.3285,0.3284,0.3283,0.3351,0.3355,0.3359,0.3405,0,0,0.3371,0.3372,0,0,0,0,0,0,0,0,0.3251,0.3253,0.3282,0.3282,0.3282,0.3299,0.332,0.3348,0.3286,0.328,0.3284,0.3282,0.3343,0.3347,0.3348,0.3408,0.3411,0.3371,0.3373,0.3375,0.3376,0,0,0,0,0,0,0,0.3249,0.3252,0.3295,0.3283,0.3283,0.3283,0.3284,0.3324,0.3315,0.3281,0.328,0.3289,0.3342,0.3345,0.335,0.3412,0.3371,0.3374,0.3377,0.3378,0.3561,0.3563,0,0,0,0,0,0,0.3254,0.3251,0.3294,0.3296,0.3267,0.3285,0.3286,0.3292,0.3314,0.3317,0.329,0.3288,0.3339,0.3346,0.3352,0.3418,0.3375,0.3378,0.3381,0.3558,0.3561,0.3564,0,0,0,0,0,0,0.3253,0.3258,0.3293,0.3277,0.3282,0.3287,0.3294,0.3293,0.3293,0.3321,0.3324,0.3291,0.3338,0.3347,0.3395,0.342,0.338,0.3384,0.3555,0.3559,0.3563,0.3544,0,0,0,0,0,0,0.3251,0.3257,0.3263,0.3278,0.3283,0.3323,0.3295,0.3294,0.3303,0.33,0.3324,0.3329,0.3338,0.3389,0.3399,0.3425,0.3387,0.3552,0.3557,0.3562,0.3541,0.3546,0.3551,0,0,0,0,0,0.3249,0.3263,0.3263,0.3268,0.3291,0.3325,0.3328,0.3325,0.3304,0.3317,0.333,0.3328,0.3427,0.3394,0.3405,0.3432,0.355,0.3556,0.3561,0.3539,0.3545,0.3551,0,0,0,0,0,0,0.3238,0.3263,0.3262,0.3282,0.3307,0.3322,0.3334,0.3329,0.3347,0.3341,0.3352,0.336,0.3422,0.3438,0.3401,0.3506,0.3493,0.3501,0.3472,0.3479,0.3483,0.3497,0.339,0,0,0,0,0,0.3241,0.3258,0.3284,0.3301,0.3314,0.3323,0.3334,0.3335,0.3354,0.3358,0.3375,0.3408,0.3457,0.3472,0.3523,0.3567,0.3606,0.3599,0.3604,0.3608,0.3631,0.3694,0.3705,0.3583,0.3583,0.3583,0,0,0.3241,0.3259,0.3267,0.3301,0.3315,0.3331,0.3326,0.335,0.3361,0.3368,0.3392,0.3434,0.348,0.3535,0.3563,0.3543,0.3668,0.3615,0.3617,0.3639,0.3701,0.3713,0.3723,0.3587,0.3586,0.3586,0,0,0.3252,0.3268,0.3284,0.3305,0.3337,0.3345,0.3353,0.3376,0.3385,0.3421,0.3439,0.3498,0.3546,0.3592,0.3618,0.3688,0.3703,0.3701,0.3717,0.3776,0.3786,0.3795,0.3865,0.388,0.3686,0.3686,0.3686,0,0.3249,0.3265,0.3296,0.3316,0.3324,0.3349,0.3357,0.3383,0.3416,0.3432,0.3431,0.3536,0.3581,0.3651,0.3684,0.3699,0.3732,0.3676,0.3778,0.3788,0.3798,0.3867,0.3884,0.3686,0.3686,0.3686,0.3686,0,0.3271,0.3278,0.3292,0.3316,0.3337,0.3353,0.3388,0.3412,0.3422,0.3446,0.3523,0.3589,0.3647,0.3679,0.3704,0.3798,0.3801,0.3783,0.375,0.3808,0.3879,0.3897,0.3686,0.3686,0.3686,0.3686,0,0,0.3262,0.3296,0.3296,0.3289,0.333,0.334,0.3378,0.3414,0.3426,0.349,0.3519,0.364,0.3676,0.3716,0.3759,0.3822,0.3933,0.3831,0.3834,0.3878,0.4071,0.4029,0.4044,0.3912,0.3915,0.3917,0.4094,0,0.3257,0.327,0.3295,0.3292,0.3293,0.3325,0.3352,0.3395,0.3434,0.3478,0.3571,0.3631,0.3686,0.3716,0.3796,0.3902,0.398,0.3888,0.403,0.4036,0.3971,0.4064,0.3953,0.4097,0.4111,0.4114,0.4117,0,0.3258,0.3261,0.3255,0.3255,0.326,0.3264,0.329,0.3321,0.3407,0.3447,0.353,0.3598,0.3736,0.3755,0.3971,0.3901,0.4006,0.4082,0.4089,0.4072,0.4027,0.4045,0.4129,0.3931,0.4145,0.4142,0.414,0,0.3212,0.3222,0.3204,0.3207,0.3228,0.3226,0.3238,0.3304,0.3329,0.3428,0.3463,0.3612,0.3687,0.3843,0.4023,0.4,0.4241,0.4216,0.4283,0.4281,0.4233,0.422,0.4125,0.438,0.438,0.4379,0.4379,0,0.3183,0.3161,0.3173,0.316,0.3134,0.3172,0.3164,0.3209,0.3278,0.3317,0.3441,0.3511,0.3712,0.3864,0.4027,0.4218,0.4249,0.4327,0.4334,0.4224,0.421,0.407,0.397,0.4386,0.4384,0.4383,0.4382,0,0.3121,0.3137,0.3107,0.3112,0.3108,0.3086,0.3098,0.3103,0.3187,0.3243,0.3279,0.3454,0.3662,0.386,0.4116,0.4209,0.427,0.4453,0.4318,0.4305,0.4156,0.4061,0.3951,0.3853,0.4564,0.4564,0.4564,0,0.308,0.3065,0.3053,0.3027,0.3017,0.2994,0.2984,0.3048,0.3065,0.3215,0.3242,0.3445,0.3589,0.3935,0.4162,0.4427,0.427,0.443,0.4376,0.4157,0.4058,0.3893,0.3806,0.432,0.4318,0.4316,0.4315,0,0.2995,0.2999,0.2977,0.2933,0.2902,0.2868,0.2863,0.2877,0.2971,0.3044,0.317,0.3296,0.3636,0.3837,0.4148,0.4316,0.4162,0.4404,0.4213,0.3901,0.3684,0.3586,0.4194,0.4301,0.4303,0.4304,0.4304,0.4305,0.292,0.2887,0.2867,0.2813,0.2779,0.2736,0.2696,0.2739,0.2776,0.2882,0.3056,0.3232,0.3503,0.3942,0.4061,0.4121,0.4107,0.4039,0.3966,0.3836,0.3651,0.4231,0.4304,0.4305,0.4306,0.4307,0.4308,0,0.2808,0.2786,0.2742,0.2666,0.2591,0.2617,0.2601,0.2576,0.2603,0.2782,0.2901,0.3186,0.3368,0.3602,0.3771,0.3665,0.3593,0.3549,0.3275,0.3234,0.3796,0.3689,0.3585,0.3585,0.3585,0.3585,0.3586,0.3586,0.2743,0.2674,0.2656,0.2499,0.2447,0.2335,0.2323,0.2338,0.2436,0.2581,0.2746,0.294,0.3135,0.3205,0.3137,0.3146,0.2881,0.2802,0.2747,0.3096,0.3134,0.317,0.3043,0.2804,0.2804,0.2112,0.2106,0.2101]},{"header":{"parameterUnit":"m.s-1","parameterCategory":2,"la1":30.2991,"la2":30.254,"lo1":-89.0895,"lo2":-89.0444,"dy":0.0017,"dx":0.0017,"nx":28,"ny":28,"refTime":"2025-08-02T21:00:00:Z","depth":"0","parameterNumber":3,"parameterNumberName":"V-component_of_CURRENTS"},"data":[0,0,0,0,0,0,0,0,0,0,0,0,0,0,0,0,0,0,0,0,0,0,0,0,0,0,0,0,0,0,0,0,0,0,0,0,0,0,0,0,0,0,0,0,0,0,0,0,0,0,0,0,0,0,0,0,0,0,0.0556,0.0556,0,0.0545,0.0545,0.0545,0.0512,0.0511,0.051,0.051,0.0482,0.0482,0.0481,0,0,0,0,0,0,0,0,0,0,0,0,0,0.051,0.0511,0.0556,0.0556,0.0556,0.0545,0.0545,0.0545,0.0512,0.0511,0.051,0.051,0.0482,0.0482,0.0481,0,0,0,0,0,0,0,0,0,0,0,0,0,0.0517,0.0512,0.0556,0.0539,0.0538,0.0545,0.0545,0.0544,0.0512,0.0511,0.051,0.0509,0.0482,0.0482,0.0481,0.0498,0,0,0.048,0.048,0,0,0,0,0,0,0,0,0.0516,0.0518,0.0541,0.054,0.0539,0.053,0.0519,0.0528,0.0512,0.052,0.051,0.0509,0.0498,0.0496,0.0494,0.0496,0.0495,0.048,0.048,0.048,0.048,0,0,0,0,0,0,0,0.0516,0.0518,0.055,0.0542,0.054,0.0519,0.052,0.052,0.0513,0.0519,0.0517,0.0519,0.0497,0.0495,0.0494,0.0495,0.048,0.048,0.048,0.048,0.0557,0.0559,0,0,0,0,0,0,0.0524,0.0518,0.055,0.055,0.0527,0.0521,0.0521,0.0532,0.0513,0.051,0.0519,0.0517,0.0496,0.0494,0.0492,0.0546,0.048,0.048,0.048,0.0554,0.0557,0.056,0,0,0,0,0,0,0.0523,0.0527,0.0551,0.0534,0.0536,0.0523,0.0536,0.0533,0.0528,0.0514,0.0509,0.0518,0.0495,0.0493,0.0511,0.0543,0.048,0.048,0.0552,0.0555,0.0558,0.0629,0,0,0,0,0,0,0.0522,0.0527,0.0537,0.0535,0.0537,0.0563,0.0537,0.0533,0.0531,0.0528,0.0511,0.0507,0.0494,0.0512,0.051,0.0541,0.0479,0.0549,0.0553,0.0557,0.0624,0.0635,0.0644,0,0,0,0,0,0.052,0.0538,0.0538,0.0542,0.0552,0.0564,0.0564,0.055,0.0532,0.054,0.0536,0.0508,0.0537,0.0513,0.0511,0.0543,0.0547,0.0552,0.0557,0.062,0.0633,0.0643,0,0,0,0,0,0,0.0519,0.0537,0.0536,0.0557,0.0565,0.0559,0.0565,0.0554,0.0556,0.0553,0.0531,0.0529,0.0561,0.0546,0.0519,0.058,0.054,0.0545,0.0588,0.06,0.061,0.0635,0.0479,0,0,0,0,0,0.0527,0.0548,0.0557,0.0574,0.058,0.0573,0.0574,0.0569,0.057,0.0568,0.0562,0.0564,0.0582,0.0584,0.0595,0.062,0.0596,0.0643,0.0653,0.0661,0.0683,0.0675,0.0686,0.0576,0.0576,0.0576,0,0,0.0531,0.0544,0.0555,0.0576,0.0578,0.0603,0.0571,0.0582,0.0607,0.0567,0.0598,0.0597,0.0599,0.0636,0.0649,0.0624,0.0677,0.0667,0.0674,0.0692,0.0682,0.0692,0.0701,0.0579,0.0579,0.0578,0,0,0.055,0.0563,0.0586,0.0602,0.0616,0.0623,0.0628,0.0633,0.0639,0.0667,0.0658,0.0684,0.0689,0.0713,0.0721,0.0792,0.0732,0.0786,0.0849,0.0841,0.0849,0.0857,0.0821,0.0824,0.0786,0.0786,0.0786,0,0.0551,0.0588,0.0593,0.0622,0.0644,0.0636,0.0669,0.0681,0.0694,0.0718,0.0688,0.0742,0.0736,0.0801,0.0828,0.0816,0.0783,0.0799,0.0851,0.0858,0.0864,0.0826,0.0829,0.079,0.079,0.0789,0.0789,0,0.0589,0.0622,0.0638,0.0681,0.0705,0.0732,0.0757,0.0785,0.0787,0.0802,0.0859,0.0858,0.0892,0.0894,0.088,0.0937,0.0889,0.0864,0.0816,0.0879,0.0835,0.0837,0.0796,0.0794,0.0793,0.0792,0,0,0.0582,0.0651,0.0657,0.0695,0.0742,0.0768,0.0827,0.0883,0.093,0.094,0.0999,0.1035,0.1029,0.1041,0.1028,0.1023,0.103,0.0963,0.0961,0.0917,0.0982,0.0937,0.0933,0.0998,0.0999,0.1,0.0926,0,0.0609,0.0677,0.0708,0.0785,0.0825,0.0861,0.0921,0.0973,0.1007,0.1063,0.1077,0.1121,0.1085,0.11,0.1098,0.1056,0.1041,0.1051,0.0938,0.0935,0.0878,0.0937,0.0962,0.0897,0.0927,0.0927,0.0927,0,0.0634,0.0682,0.0755,0.0854,0.0876,0.0922,0.1027,0.108,0.116,0.1185,0.1233,0.1233,0.1266,0.1206,0.1167,0.1166,0.1091,0.1039,0.1034,0.0974,0.0894,0.0844,0.0899,0.0723,0.0929,0.0929,0.0929,0,0.063,0.0719,0.0783,0.0814,0.0917,0.0966,0.1023,0.1115,0.1179,0.126,0.1302,0.1332,0.1338,0.1277,0.1187,0.1168,0.111,0.1066,0.0954,0.0947,0.0943,0.0935,0.0812,0.1032,0.1032,0.1032,0.1033,0,0.0652,0.0704,0.0785,0.0823,0.0913,0.0979,0.1083,0.1147,0.1247,0.1335,0.1358,0.1415,0.1352,0.1315,0.1218,0.1099,0.1132,0.0985,0.0941,0.0966,0.0961,0.0786,0.0689,0.103,0.103,0.1031,0.1031,0,0.0643,0.0693,0.0773,0.0877,0.0913,0.0976,0.1111,0.1196,0.1274,0.1386,0.1413,0.1467,0.143,0.1349,0.1243,0.1132,0.0938,0.0967,0.099,0.0951,0.0677,0.0585,0.0457,0.0404,0.0834,0.0833,0.0832,0,0.0645,0.0683,0.0794,0.0849,0.0897,0.0998,0.1083,0.1195,0.1292,0.142,0.1479,0.1485,0.1523,0.1357,0.1191,0.1025,0.0887,0.0886,0.0871,0.0682,0.0546,0.0503,0.0465,0.0879,0.0878,0.0878,0.0877,0,0.0654,0.0688,0.076,0.086,0.0948,0.1064,0.1188,0.1265,0.1405,0.1494,0.1603,0.1639,0.1521,0.1398,0.1167,0.1037,0.078,0.0866,0.0682,0.0591,0.0529,0.045,0.0876,0.0873,0.0873,0.0874,0.0874,0.0874,0.0657,0.0703,0.0791,0.0891,0.0996,0.1132,0.1222,0.1358,0.1499,0.1655,0.1689,0.1782,0.1602,0.1322,0.1088,0.0696,0.0713,0.0571,0.0478,0.0454,0.0403,0.0803,0.0741,0.0741,0.0741,0.074,0.074,0,0.0666,0.073,0.0822,0.0951,0.1065,0.1122,0.13,0.14,0.1549,0.1718,0.1822,0.1855,0.1557,0.1241,0.0731,0.0383,0.0306,0.0195,0.0144,0.0128,0.0494,0.0496,0.0365,0.0365,0.0365,0.0365,0.0365,0.0365,0.0678,0.0759,0.0813,0.0985,0.108,0.1224,0.1322,0.1467,0.1618,0.1814,0.1938,0.205,0.1813,0.0838,0.0151,0.0014,-0.0214,-0.0259,-0.038,-0.0151,-0.0123,-0.0096,-0.0117,-0.0375,-0.0376,-0.066,-0.0663,-0.0666]}],[{"header":{"parameterUnit":"m.s-1","parameterCategory":2,"la1":30.2991,"la2":30.254,"lo1":-89.0895,"lo2":-89.0444,"dy":0.0017,"dx":0.0017,"nx":28,"ny":28,"refTime":"2025-08-02T21:00:00:Z","depth":"2","parameterNumber":2,"parameterNumberName":"U-component_of_CURRENTS"},"data":[0,0,0,0,0,0,0,0,0,0,0,0,0,0,0,0,0,0,0,0,0,0,0,0,0,0,0,0,0,0,0,0,0,0,0,0,0,0,0,0,0,0,0,0,0,0,0,0,0,0,0,0,0,0,0,0,0,0,0.2412,0.2412,0,0.2398,0.2397,0.2397,0.2396,0.2397,0.2397,0.2398,0.2394,0.2394,0.2393,0,0,0,0,0,0,0,0,0,0,0,0,0,0.2423,0.2423,0.2412,0.2412,0.2412,0.2398,0.2397,0.2397,0.2396,0.2397,0.2397,0.2398,0.2394,0.2394,0.2393,0,0,0,0,0,0,0,0,0,0,0,0,0,0.2411,0.2422,0.2412,0.2412,0.2412,0.2398,0.2397,0.2397,0.2396,0.2397,0.2398,0.2398,0.2394,0.2394,0.2393,0.2374,0,0,0.2391,0.239,0,0,0,0,0,0,0,0,0.2412,0.2411,0.2412,0.2412,0.2412,0.2402,0.24,0.2391,0.2396,0.2399,0.2398,0.2399,0.2399,0.2398,0.2389,0.2374,0.2374,0.239,0.239,0.239,0.2389,0,0,0,0,0,0,0,0.2413,0.2411,0.2403,0.2412,0.2412,0.2408,0.2407,0.2398,0.2393,0.2399,0.24,0.2403,0.2399,0.239,0.2389,0.2374,0.239,0.239,0.2389,0.2389,0.2417,0.2418,0,0,0,0,0,0,0.2421,0.2412,0.2403,0.2403,0.2417,0.2408,0.2406,0.2402,0.2393,0.2393,0.2402,0.2403,0.2391,0.239,0.2389,0.2438,0.239,0.2389,0.2388,0.2416,0.2418,0.2419,0,0,0,0,0,0,0.2421,0.242,0.2404,0.241,0.2408,0.2407,0.2402,0.2402,0.2412,0.2396,0.2396,0.2416,0.2392,0.239,0.2403,0.2435,0.2389,0.2388,0.2415,0.2417,0.2418,0.249,0,0,0,0,0,0,0.2421,0.242,0.2426,0.241,0.2408,0.2409,0.2402,0.2401,0.2413,0.2414,0.2407,0.2406,0.2392,0.2404,0.2402,0.2433,0.2387,0.2413,0.2416,0.2418,0.2486,0.2494,0.2501,0,0,0,0,0,0.2421,0.2419,0.2426,0.2426,0.2414,0.241,0.2408,0.2407,0.2413,0.2418,0.242,0.2408,0.2417,0.2404,0.2401,0.2433,0.2412,0.2415,0.2417,0.2483,0.2492,0.25,0,0,0,0,0,0,0.2427,0.2419,0.2426,0.2422,0.2427,0.2411,0.2417,0.2419,0.2422,0.243,0.2416,0.2415,0.244,0.2424,0.241,0.2449,0.2415,0.2418,0.2466,0.2475,0.2482,0.2483,0.2387,0,0,0,0,0,0.2432,0.243,0.2428,0.2429,0.2433,0.2431,0.2433,0.2435,0.2433,0.2436,0.2434,0.2436,0.2444,0.2451,0.2447,0.2464,0.2476,0.2485,0.2492,0.2499,0.2499,0.2542,0.2554,0.2428,0.2428,0.2428,0,0,0.2434,0.2432,0.2431,0.2431,0.2434,0.2438,0.2433,0.2442,0.2453,0.2435,0.2453,0.2459,0.2454,0.2476,0.2486,0.2471,0.2548,0.2502,0.2508,0.2504,0.2546,0.2559,0.257,0.243,0.2429,0.2429,0,0,0.243,0.2439,0.2435,0.2441,0.2454,0.2454,0.2464,0.2464,0.2476,0.2491,0.2491,0.2517,0.2517,0.2527,0.253,0.2574,0.2583,0.2583,0.2624,0.2667,0.2678,0.2687,0.275,0.2764,0.2589,0.2589,0.2589,0,0.2437,0.2431,0.2436,0.2439,0.2449,0.2466,0.2471,0.2483,0.2491,0.2511,0.2507,0.2544,0.2539,0.258,0.26,0.2592,0.2627,0.2592,0.2678,0.2687,0.2696,0.2757,0.2772,0.2593,0.2592,0.2592,0.2592,0,0.2425,0.2433,0.2435,0.2445,0.2458,0.2467,0.2488,0.2514,0.2536,0.255,0.26,0.2604,0.2631,0.2641,0.2633,0.2699,0.271,0.2682,0.2657,0.2713,0.2774,0.2789,0.2598,0.2597,0.2596,0.2595,0,0,0.2404,0.2422,0.2425,0.2438,0.2465,0.2472,0.251,0.2546,0.2583,0.2611,0.2659,0.2686,0.2709,0.2715,0.2724,0.276,0.2859,0.2756,0.2756,0.2822,0.2986,0.2861,0.2864,0.2856,0.2858,0.286,0.3016,0,0.2397,0.2406,0.2417,0.2438,0.2448,0.2486,0.2519,0.2562,0.2604,0.2658,0.2698,0.274,0.2733,0.2763,0.2804,0.2838,0.2896,0.2821,0.2918,0.2921,0.2805,0.2875,0.2553,0.2653,0.303,0.3033,0.3034,0,0.2376,0.2391,0.2406,0.2447,0.2456,0.2474,0.2547,0.2578,0.2662,0.2699,0.2766,0.28,0.2875,0.285,0.2964,0.2924,0.2968,0.2991,0.2997,0.2857,0.282,0.2651,0.2664,0.3058,0.3056,0.3055,0.3053,0,0.2355,0.2381,0.2398,0.2409,0.2457,0.2484,0.2518,0.2594,0.2642,0.2735,0.2791,0.2873,0.2931,0.2993,0.306,0.3026,0.318,0.3133,0.3072,0.3066,0.2794,0.2758,0.3221,0.3221,0.3221,0.322,0.322,0,0.2333,0.2349,0.2392,0.2401,0.2434,0.2476,0.2526,0.2579,0.2673,0.2731,0.2815,0.2885,0.297,0.3066,0.3107,0.3143,0.323,0.3094,0.3093,0.2812,0.2777,0.3113,0.3099,0.3226,0.3225,0.3224,0.3223,0,0.2299,0.2329,0.235,0.2402,0.242,0.2445,0.2521,0.2562,0.2662,0.2748,0.2787,0.2928,0.3034,0.3125,0.3234,0.3192,0.324,0.3237,0.2911,0.2866,0.309,0.3077,0.3169,0.3166,0.3163,0.3161,0.3159,0,0.2279,0.2287,0.2337,0.235,0.237,0.2414,0.2444,0.2542,0.259,0.2762,0.2801,0.2953,0.3008,0.3134,0.3058,0.3091,0.3244,0.2853,0.2695,0.3092,0.3084,0.3075,0.3067,0.2397,0.2389,0.2383,0.2377,0,0.2235,0.2258,0.2276,0.2305,0.2332,0.2357,0.2411,0.2456,0.2573,0.2658,0.277,0.2832,0.288,0.2733,0.2763,0.2739,0.2803,0.2717,0.3236,0.2439,0.237,0.236,0.2376,0.2319,0.2325,0.2329,0.2332,0.2335,0.2199,0.2201,0.2226,0.2253,0.2275,0.229,0.2297,0.2354,0.2422,0.2435,0.2556,0.2505,0.2485,0.2305,0.2283,0.2259,0.2431,0.2337,0.2356,0.2381,0.2242,0.2169,0.2058,0.2062,0.2066,0.2069,0.2072,0,0.2136,0.2155,0.2171,0.2187,0.2178,0.2224,0.2261,0.2233,0.2257,0.2186,0.2156,0.1882,0.1768,0.1857,0.1668,0.1656,0.1622,0.1662,0.1592,0.1647,0.1697,0.1523,0.115,0.1148,0.1146,0.1145,0,0,0.2104,0.2098,0.2115,0.2088,0.21,0.2068,0.2077,0.2029,0.197,0.1749,0.1605,0.1503,0.1682,0.1336,0.1304,0.1225,0.1435,0.1172,0.189,0.1856,0.1904,0.2045,0.1832,0,0,0,0,0]},{"header":{"parameterUnit":"m.s-1","parameterCategory":2,"la1":30.2991,"la2":30.254,"lo1":-89.0895,"lo2":-89.0444,"dy":0.0017,"dx":0.0017,"nx":28,"ny":28,"refTime":"2025-08-02T21:00:00:Z","depth":"2","parameterNumber":3,"parameterNumberName":"V-component_of_CURRENTS"},"data":[0,0,0,0,0,0,0,0,0,0,0,0,0,0,0,0,0,0,0,0,0,0,0,0,0,0,0,0,0,0,0,0,0,0,0,0,0,0,0,0,0,0,0,0,0,0,0,0,0,0,0,0,0,0,0,0,0,0,-0.0406,-0.0407,0,-0.0471,-0.0471,-0.0472,-0.0485,-0.0485,-0.0485,-0.0484,-0.057,-0.0572,-0.0574,0,0,0,0,0,0,0,0,0,0,0,0,0,-0.0337,-0.0338,-0.0406,-0.0407,-0.0408,-0.0471,-0.0471,-0.0472,-0.0485,-0.0485,-0.0485,-0.0484,-0.0569,-0.0572,-0.0575,0,0,0,0,0,0,0,0,0,0,0,0,0,-0.0379,-0.0338,-0.0406,-0.0424,-0.0426,-0.047,-0.0471,-0.0472,-0.0485,-0.0485,-0.0484,-0.0484,-0.0568,-0.0571,-0.0575,-0.0608,0,0,-0.0587,-0.0588,0,0,0,0,0,0,0,0,-0.0376,-0.0381,-0.042,-0.0423,-0.0426,-0.0471,-0.0478,-0.0519,-0.0485,-0.0461,-0.0484,-0.0484,-0.054,-0.0546,-0.0556,-0.0612,-0.0615,-0.0587,-0.0589,-0.0591,-0.0592,0,0,0,0,0,0,0,-0.0373,-0.0379,-0.043,-0.0421,-0.0425,-0.0443,-0.0448,-0.0486,-0.0501,-0.0463,-0.0465,-0.0475,-0.0541,-0.0552,-0.0558,-0.0617,-0.0587,-0.059,-0.0593,-0.0594,-0.0674,-0.0674,0,0,0,0,0,0,-0.0368,-0.0376,-0.0428,-0.0432,-0.0402,-0.0445,-0.045,-0.0455,-0.05,-0.0507,-0.0475,-0.0476,-0.0546,-0.0554,-0.0561,-0.0553,-0.0591,-0.0595,-0.0597,-0.0674,-0.0674,-0.0674,0,0,0,0,0,0,-0.0366,-0.0372,-0.0425,-0.0407,-0.0415,-0.0446,-0.0452,-0.0457,-0.0454,-0.051,-0.0517,-0.0467,-0.0546,-0.0556,-0.0577,-0.0558,-0.0596,-0.06,-0.0674,-0.0674,-0.0674,-0.0568,0,0,0,0,0,0,-0.0364,-0.0371,-0.0367,-0.0407,-0.0416,-0.0434,-0.0453,-0.0459,-0.0464,-0.0464,-0.0505,-0.0513,-0.0547,-0.0571,-0.0581,-0.0564,-0.0603,-0.0674,-0.0674,-0.0674,-0.0571,-0.0564,-0.0557,0,0,0,0,0,-0.0361,-0.0358,-0.0366,-0.0372,-0.0412,-0.0433,-0.0439,-0.0459,-0.0463,-0.0456,-0.0483,-0.0511,-0.0576,-0.0574,-0.0586,-0.0569,-0.0675,-0.0674,-0.0674,-0.0574,-0.0565,-0.0557,0,0,0,0,0,0,-0.0327,-0.0361,-0.037,-0.0377,-0.0395,-0.0436,-0.0435,-0.0449,-0.0465,-0.0461,-0.0509,-0.0519,-0.0531,-0.057,-0.0567,-0.0594,-0.0631,-0.0633,-0.0551,-0.0543,-0.0536,-0.051,-0.0606,0,0,0,0,0,-0.0319,-0.0322,-0.0357,-0.0359,-0.0366,-0.0396,-0.0406,-0.0417,-0.0442,-0.0448,-0.0476,-0.0511,-0.0543,-0.0556,-0.0591,-0.0606,-0.0634,-0.0606,-0.0599,-0.0592,-0.058,-0.0622,-0.0616,-0.0672,-0.0672,-0.0672,0,0,-0.0308,-0.0326,-0.0328,-0.0352,-0.0367,-0.0364,-0.0399,-0.0404,-0.0396,-0.0457,-0.0449,-0.0487,-0.0542,-0.0553,-0.0563,-0.058,-0.0585,-0.0592,-0.0585,-0.0577,-0.0621,-0.0615,-0.061,-0.0672,-0.0672,-0.0672,0,0,-0.0286,-0.03,-0.0293,-0.03,-0.0318,-0.0334,-0.0329,-0.0355,-0.0358,-0.0364,-0.0404,-0.0427,-0.0473,-0.0503,-0.0527,-0.0507,-0.0547,-0.0521,-0.0461,-0.0501,-0.0496,-0.0492,-0.0489,-0.0486,-0.0516,-0.0516,-0.0516,0,-0.027,-0.0263,-0.0293,-0.0284,-0.0278,-0.0312,-0.029,-0.0305,-0.0331,-0.033,-0.0346,-0.0403,-0.0447,-0.0466,-0.0455,-0.0488,-0.0505,-0.0483,-0.0489,-0.0486,-0.0484,-0.0482,-0.048,-0.0511,-0.0512,-0.0512,-0.0513,0,-0.0244,-0.0229,-0.0223,-0.0217,-0.0215,-0.0202,-0.0221,-0.0216,-0.0224,-0.0241,-0.0253,-0.0313,-0.0342,-0.0365,-0.0401,-0.0409,-0.0421,-0.0473,-0.0502,-0.0472,-0.0472,-0.0471,-0.0504,-0.0505,-0.0507,-0.0508,0,0,-0.0226,-0.0207,-0.0201,-0.0172,-0.0171,-0.0163,-0.0145,-0.0139,-0.0118,-0.0151,-0.0131,-0.0191,-0.0219,-0.0249,-0.0302,-0.0338,-0.033,-0.0387,-0.0392,-0.0367,-0.0382,-0.0329,-0.0324,-0.0385,-0.0385,-0.0385,-0.0376,0,-0.0189,-0.0144,-0.0147,-0.0088,-0.0059,-0.0068,-0.0044,-0.0043,-0.0051,-0.0043,-0.0105,-0.0113,-0.0178,-0.0184,-0.0227,-0.0309,-0.033,-0.0325,-0.043,-0.0432,-0.0377,-0.0323,-0.0358,-0.0349,-0.0376,-0.0376,-0.0376,0,-0.0156,-0.0126,-0.0063,-0.0003,0.0009,0.0035,0.0082,0.0096,0.0087,0.008,0.0056,0.0012,-0.0028,-0.0099,-0.0198,-0.0191,-0.0267,-0.0336,-0.0339,-0.0327,-0.0379,-0.0393,-0.0348,-0.0376,-0.0376,-0.0376,-0.0376,0,-0.0111,-0.0059,0.0001,0.0019,0.0068,0.01,0.0124,0.0135,0.0164,0.0156,0.0174,0.0113,0.0094,-0.0016,-0.0125,-0.0167,-0.0231,-0.0317,-0.0336,-0.0333,-0.0401,-0.0403,-0.0387,-0.0387,-0.0387,-0.0387,-0.0387,0,-0.006,-0.0008,0.0027,0.0065,0.014,0.0154,0.0228,0.0235,0.0261,0.0309,0.0241,0.0267,0.011,0.006,-0.007,-0.0162,-0.0184,-0.0297,-0.0324,-0.0361,-0.0359,-0.043,-0.0435,-0.0387,-0.0387,-0.0387,-0.0387,0,-0.0008,0.0012,0.0088,0.0146,0.0166,0.0221,0.0296,0.0346,0.0356,0.0416,0.0423,0.039,0.0342,0.021,0.0055,-0.0068,-0.0184,-0.0218,-0.0213,-0.0239,-0.0277,-0.0277,-0.0251,-0.0249,-0.0247,-0.0246,-0.0245,0,0.0028,0.0071,0.0145,0.0189,0.022,0.0295,0.035,0.0386,0.0445,0.05,0.0539,0.0526,0.0554,0.0387,0.015,-0.0025,-0.0079,-0.0171,-0.0271,-0.0232,-0.0262,-0.0265,-0.0267,-0.0318,-0.0318,-0.0317,-0.0317,0,0.0102,0.0123,0.018,0.0261,0.0326,0.0411,0.0491,0.0554,0.061,0.0693,0.0794,0.0829,0.0657,0.0474,0.0237,0.0089,-0.0146,-0.0166,-0.0143,-0.033,-0.0291,-0.0322,-0.0323,-0.0314,-0.0314,-0.0314,-0.0314,-0.0314,0.0153,0.0202,0.0264,0.0346,0.042,0.0525,0.061,0.072,0.0861,0.0962,0.0958,0.0978,0.0716,0.0406,0.0197,-0.0058,-0.0079,-0.0218,-0.0223,-0.0227,-0.0218,-0.0178,-0.0175,-0.0175,-0.0174,-0.0174,-0.0174,0,0.0218,0.0266,0.0346,0.0447,0.0542,0.0565,0.0704,0.0817,0.1014,0.1057,0.1139,0.0896,0.0695,0.0435,0.0041,-0.0168,-0.023,-0.0214,-0.0288,-0.0291,-0.0293,-0.0292,-0.0266,-0.0266,-0.0266,-0.0266,0,0,0.0256,0.0339,0.038,0.0538,0.0608,0.074,0.0827,0.1011,0.1092,0.1181,0.1139,0.1021,0.0721,0.0414,0.0121,-0.0067,-0.012,-0.0096,-0.0013,-0.007,-0.0069,-0.0297,-0.0296,0,0,0,0,0]}],[{"header":{"parameterUnit":"m.s-1","parameterCategory":2,"la1":30.2991,"la2":30.254,"lo1":-89.0895,"lo2":-89.0444,"dy":0.0017,"dx":0.0017,"nx":28,"ny":28,"refTime":"2025-08-02T21:00:00:Z","depth":"4","parameterNumber":2,"parameterNumberName":"U-component_of_CURRENTS"},"data":[0,0,0,0,0,0,0,0,0,0,0,0,0,0,0,0,0,0,0,0,0,0,0,0,0,0,0,0,0,0,0,0,0,0,0,0,0,0,0,0,0,0,0,0,0,0,0,0,0,0,0,0,0,0,0,0,0,0,0.0245,0.0245,0,0.0287,0.0288,0.0288,0.0368,0.037,0.0371,0.0372,0.0586,0.059,0.0594,0,0,0,0,0,0,0,0,0,0,0,0,0,0.0216,0.0216,0.0245,0.0245,0.0245,0.0287,0.0288,0.0289,0.0368,0.037,0.0371,0.0373,0.0584,0.0589,0.0595,0,0,0,0,0,0,0,0,0,0,0,0,0,0.0243,0.0217,0.0245,0.0288,0.0292,0.0287,0.0288,0.0289,0.0368,0.037,0.0372,0.0374,0.0582,0.0589,0.0595,0.0597,0,0,0.0616,0.0619,0,0,0,0,0,0,0,0,0.0241,0.0244,0.0282,0.0285,0.029,0.0322,0.0356,0.0399,0.0367,0.0342,0.0372,0.0375,0.051,0.0523,0.0528,0.0607,0.0616,0.0616,0.062,0.0623,0.0625,0,0,0,0,0,0,0,0.0239,0.0242,0.0264,0.0282,0.0287,0.03,0.0306,0.0364,0.0419,0.0344,0.0349,0.035,0.0515,0.0521,0.0534,0.0619,0.0616,0.0622,0.0626,0.0629,0.0859,0.0861,0,0,0,0,0,0,0.0228,0.0241,0.0263,0.0265,0.0267,0.0299,0.0306,0.0312,0.0415,0.0431,0.0348,0.0353,0.0508,0.0526,0.0542,0.0713,0.0623,0.0629,0.0633,0.0857,0.086,0.0862,0,0,0,0,0,0,0.0227,0.0229,0.0261,0.0252,0.0256,0.0297,0.0303,0.0312,0.0373,0.0416,0.0436,0.0406,0.0511,0.0532,0.0637,0.0716,0.0632,0.0638,0.0854,0.0858,0.0861,0.0952,0,0,0,0,0,0,0.0226,0.0229,0.0238,0.0251,0.0256,0.0292,0.0301,0.0311,0.0365,0.0374,0.0471,0.0489,0.0514,0.0627,0.0644,0.0724,0.0644,0.0852,0.0856,0.086,0.0947,0.0958,0.0968,0,0,0,0,0,0.0225,0.0231,0.0238,0.0241,0.0264,0.0292,0.0298,0.0334,0.0367,0.0397,0.0466,0.0489,0.0665,0.0634,0.0653,0.0737,0.085,0.0855,0.0859,0.0942,0.0956,0.0968,0,0,0,0,0,0,0.0228,0.024,0.0248,0.0259,0.0287,0.0306,0.033,0.0362,0.0436,0.0471,0.0516,0.0539,0.0655,0.0677,0.0642,0.0811,0.0762,0.0771,0.0818,0.0832,0.0842,0.085,0.0649,0,0,0,0,0,0.0227,0.0238,0.0255,0.0269,0.0284,0.0318,0.0338,0.0378,0.0432,0.0469,0.0545,0.062,0.0677,0.0741,0.0791,0.0892,0.087,0.0957,0.0967,0.0977,0.0994,0.1006,0.1019,0.0878,0.0878,0.0877,0,0,0.0229,0.0238,0.0245,0.027,0.0293,0.033,0.0339,0.0397,0.045,0.0482,0.0607,0.0662,0.0707,0.0812,0.0869,0.0855,0.1002,0.0983,0.099,0.1003,0.1012,0.1026,0.1038,0.0881,0.088,0.088,0,0,0.024,0.0254,0.0269,0.0302,0.0351,0.037,0.0401,0.047,0.0524,0.0637,0.0664,0.0758,0.0883,0.0916,0.0946,0.1045,0.1045,0.1089,0.1178,0.119,0.1201,0.1211,0.1182,0.1188,0.1112,0.1112,0.1112,0,0.0247,0.0266,0.0281,0.0318,0.0357,0.0397,0.0451,0.0493,0.0602,0.0652,0.07,0.0879,0.0921,0.1016,0.1065,0.1072,0.1075,0.1126,0.1203,0.1213,0.1221,0.1189,0.1195,0.1117,0.1117,0.1116,0.1116,0,0.0274,0.0304,0.0323,0.0376,0.0425,0.0478,0.054,0.0616,0.0705,0.0756,0.0908,0.0983,0.1097,0.1127,0.1143,0.1243,0.122,0.1199,0.1168,0.1241,0.1202,0.1207,0.1124,0.1123,0.1121,0.112,0,0,0.0256,0.0323,0.0334,0.0385,0.0472,0.0522,0.0607,0.0686,0.0753,0.0897,0.0998,0.1134,0.121,0.1249,0.1294,0.1329,0.1384,0.1327,0.1325,0.1293,0.1407,0.1263,0.1253,0.1399,0.1401,0.1403,0.1347,0,0.0276,0.034,0.0382,0.0481,0.0531,0.0609,0.0676,0.0769,0.0861,0.0964,0.1063,0.1181,0.1242,0.1335,0.1388,0.1383,0.1408,0.1401,0.1346,0.1343,0.1203,0.1258,0.1409,0.135,0.1351,0.1352,0.1353,0,0.0296,0.0339,0.0426,0.0543,0.0576,0.0665,0.0803,0.0871,0.0977,0.1061,0.1208,0.1271,0.1392,0.1411,0.1486,0.1497,0.148,0.1458,0.1454,0.1295,0.1209,0.1267,0.136,0.136,0.1359,0.1359,0.1358,0,0.0278,0.0383,0.0455,0.0501,0.0625,0.0725,0.0816,0.0932,0.1001,0.1144,0.1213,0.1354,0.1458,0.1481,0.1472,0.151,0.1474,0.1494,0.1333,0.132,0.1424,0.1414,0.1511,0.1511,0.1511,0.1512,0.1512,0,0.0279,0.0343,0.0478,0.0523,0.0646,0.0767,0.0898,0.099,0.1126,0.1177,0.1299,0.135,0.1494,0.1483,0.1466,0.14,0.1471,0.1354,0.1308,0.146,0.1455,0.1425,0.1416,0.1509,0.151,0.151,0.1511,0,0.0257,0.0311,0.041,0.0573,0.0639,0.0754,0.0951,0.1018,0.116,0.1235,0.129,0.1398,0.1392,0.1411,0.1406,0.1383,0.1304,0.1238,0.1356,0.1315,0.1154,0.115,0.1119,0.1114,0.1109,0.1106,0.1103,0,0.0248,0.0284,0.0448,0.05,0.0599,0.0767,0.0845,0.103,0.1083,0.1206,0.1207,0.1272,0.13,0.1183,0.1211,0.1141,0.1123,0.11,0.1205,0.1162,0.112,0.1123,0.1126,0.1095,0.1094,0.1093,0.1092,0,0.0223,0.028,0.036,0.0467,0.0581,0.0684,0.0831,0.087,0.1016,0.1126,0.1132,0.1139,0.1102,0.1103,0.1043,0.0983,0.1143,0.1055,0.1067,0.1165,0.1132,0.1096,0.1104,0.1076,0.1079,0.108,0.1081,0,0.0207,0.0254,0.0336,0.0439,0.0541,0.0611,0.0689,0.0769,0.0858,0.1004,0.0966,0.0991,0.1071,0.1007,0.0911,0.0881,0.092,0.0944,0.0963,0.0981,0.0959,0.0898,0.0737,0,0,0,0,0,0.0199,0.0226,0.0294,0.0386,0.0477,0.0541,0.0664,0.0724,0.0832,0.082,0.0928,0.0866,0.0847,0.0838,0.0783,0.0822,0.0892,0.0754,0.0924,0.099,0.1008,0.0994,0,0,0,0,0,0,0.0175,0.0235,0.0272,0.0327,0.0368,0.0461,0.0537,0.0602,0.0608,0.0718,0.0696,0.0803,0.0762,0.085,0.0756,0.0755,0.0847,0.0779,0.0777,0.098,0.0996,0.1011,0.1003,0,0,0,0,0]},{"header":{"parameterUnit":"m.s-1","parameterCategory":2,"la1":30.2991,"la2":30.254,"lo1":-89.0895,"lo2":-89.0444,"dy":0.0017,"dx":0.0017,"nx":28,"ny":28,"refTime":"2025-08-02T21:00:00:Z","depth":"4","parameterNumber":3,"parameterNumberName":"V-component_of_CURRENTS"},"data":[0,0,0,0,0,0,0,0,0,0,0,0,0,0,0,0,0,0,0,0,0,0,0,0,0,0,0,0,0,0,0,0,0,0,0,0,0,0,0,0,0,0,0,0,0,0,0,0,0,0,0,0,0,0,0,0,0,0,0.0442,0.0442,0,0.0427,0.0427,0.0426,0.0441,0.0441,0.0442,0.0443,0.04,0.0398,0.0396,0,0,0,0,0,0,0,0,0,0,0,0,0,0.0421,0.0421,0.0442,0.0442,0.0442,0.0427,0.0427,0.0426,0.0441,0.0441,0.0442,0.0443,0.04,0.0398,0.0396,0,0,0,0,0,0,0,0,0,0,0,0,0,0.0419,0.0422,0.0442,0.0448,0.0449,0.0427,0.0427,0.0426,0.044,0.0441,0.0442,0.0444,0.0401,0.0398,0.0396,0.0357,0,0,0.0387,0.0386,0,0,0,0,0,0,0,0,0.0419,0.042,0.0447,0.0448,0.0448,0.0438,0.0404,0.0402,0.044,0.0442,0.0443,0.0444,0.041,0.0407,0.04,0.0355,0.0354,0.0387,0.0385,0.0384,0.0384,0,0,0,0,0,0,0,0.0419,0.042,0.0434,0.0447,0.0448,0.0431,0.0432,0.0403,0.0418,0.0442,0.0443,0.0444,0.041,0.0402,0.0399,0.0353,0.0387,0.0385,0.0383,0.0382,0.0279,0.0278,0,0,0,0,0,0,0.0426,0.042,0.0435,0.0434,0.0438,0.0431,0.0432,0.0439,0.0419,0.0418,0.0443,0.0444,0.0406,0.0402,0.0397,0.0368,0.0384,0.0382,0.038,0.028,0.0279,0.0277,0,0,0,0,0,0,0.0426,0.0428,0.0435,0.0428,0.0428,0.0431,0.0438,0.0438,0.0453,0.0421,0.0419,0.046,0.0407,0.0401,0.039,0.0366,0.0381,0.0378,0.0281,0.028,0.0278,0.0299,0,0,0,0,0,0,0.0426,0.0428,0.0439,0.0428,0.0428,0.0439,0.0437,0.0437,0.0451,0.0454,0.0434,0.043,0.0407,0.0394,0.0387,0.0363,0.0376,0.0283,0.0281,0.0279,0.03,0.0299,0.0297,0,0,0,0,0,0.0425,0.0435,0.044,0.0442,0.0443,0.044,0.0439,0.0442,0.0451,0.0459,0.0447,0.0432,0.0375,0.0392,0.0383,0.0358,0.0284,0.0281,0.0279,0.0301,0.0299,0.0297,0,0,0,0,0,0,0.0432,0.0437,0.0442,0.0455,0.0456,0.0444,0.0451,0.0454,0.045,0.0459,0.043,0.0425,0.04,0.0377,0.0397,0.0319,0.0321,0.0317,0.034,0.0338,0.0337,0.0343,0.0374,0,0,0,0,0,0.0439,0.0451,0.0449,0.0462,0.0464,0.0462,0.0463,0.047,0.0462,0.0464,0.0443,0.0414,0.0376,0.0362,0.033,0.0298,0.0272,0.027,0.0269,0.0268,0.0266,0.0215,0.021,0.0269,0.0269,0.0269,0,0,0.0445,0.045,0.0458,0.0465,0.0466,0.0462,0.0466,0.048,0.0474,0.0456,0.0442,0.0415,0.0368,0.033,0.0314,0.0313,0.0237,0.0265,0.0265,0.0263,0.0212,0.0207,0.0202,0.0268,0.0268,0.0268,0,0,0.0461,0.0471,0.0486,0.0483,0.0493,0.0482,0.0492,0.0487,0.0487,0.0472,0.0447,0.0417,0.0367,0.0324,0.0295,0.0267,0.0235,0.0247,0.0243,0.0194,0.0189,0.0185,0.0147,0.0139,0.0243,0.0243,0.0243,0,0.0473,0.0484,0.0489,0.0495,0.0493,0.0493,0.0499,0.0486,0.0477,0.0465,0.0474,0.0388,0.0358,0.0293,0.0279,0.0264,0.0236,0.0257,0.0194,0.0189,0.0184,0.0147,0.0138,0.0243,0.0243,0.0243,0.0243,0,0.0486,0.0498,0.0505,0.0507,0.0507,0.0513,0.0498,0.0489,0.0484,0.0466,0.0425,0.0384,0.0334,0.0306,0.0283,0.0218,0.0211,0.0204,0.0205,0.0179,0.0142,0.0132,0.0244,0.0244,0.0244,0.0244,0,0,0.0508,0.0514,0.0517,0.0524,0.0516,0.0519,0.0497,0.0474,0.0458,0.0436,0.0406,0.0339,0.0327,0.0293,0.0257,0.0207,0.0148,0.019,0.0187,0.0165,0.0044,0.005,0.0039,0.0131,0.013,0.0128,0.0034,0,0.0519,0.0533,0.0528,0.0536,0.0542,0.0523,0.0494,0.0474,0.0454,0.0418,0.0373,0.0339,0.0318,0.0301,0.0246,0.0172,0.0122,0.0174,0.0062,0.0058,0.0075,0.0028,0.0123,0.0027,0.0024,0.0023,0.0022,0,0.053,0.0541,0.0558,0.0551,0.0551,0.0561,0.0528,0.0504,0.0445,0.0426,0.0386,0.0351,0.0277,0.0273,0.0141,0.0176,0.0111,0.0057,0.0052,0.0042,0.0045,0.0053,0.0003,0.0005,0.0006,0.0007,0.0008,0,0.0542,0.0557,0.0575,0.0574,0.0563,0.058,0.0574,0.0528,0.0512,0.0454,0.0433,0.0345,0.0316,0.0215,0.0102,0.0121,-0.0047,-0.0031,-0.0088,-0.0088,-0.007,-0.0064,-0.0127,-0.0127,-0.0127,-0.0126,-0.0126,0,0.0537,0.0552,0.0603,0.0609,0.0631,0.0627,0.0633,0.0597,0.057,0.0532,0.0464,0.0403,0.03,0.0191,0.009,-0.0038,-0.0056,-0.0102,-0.012,-0.0059,-0.0051,-0.0077,-0.007,-0.013,-0.0129,-0.0129,-0.0128,0,0.0533,0.0552,0.0583,0.062,0.0642,0.0668,0.0698,0.068,0.0655,0.0608,0.0596,0.0464,0.0311,0.0188,0.0015,-0.0037,-0.017,-0.0213,-0.0147,-0.0158,-0.017,-0.0161,-0.0267,-0.0268,-0.0269,-0.0269,-0.027,0,0.0517,0.0538,0.061,0.0637,0.0673,0.072,0.0724,0.0726,0.0704,0.0616,0.0573,0.0448,0.0338,0.0092,-0.0035,-0.0212,-0.0228,-0.0271,-0.0212,-0.0182,-0.0189,-0.0178,-0.0169,-0.0271,-0.0271,-0.0271,-0.0271,0,0.0491,0.0537,0.0564,0.0635,0.0685,0.0711,0.0739,0.0732,0.069,0.0684,0.0544,0.0424,0.0249,0.0073,-0.0058,-0.0192,-0.0228,-0.0277,-0.0276,-0.0221,-0.0187,-0.0191,-0.0181,-0.0274,-0.0273,-0.0273,-0.0273,0,0.0481,0.05,0.0556,0.0613,0.0669,0.069,0.0702,0.0673,0.066,0.0587,0.0527,0.035,0.0266,0.0077,-0.0072,-0.0174,-0.0176,-0.0173,-0.0177,-0.0176,-0.0113,-0.0055,-0.013,0,0,0,0,0,0.0467,0.0483,0.0521,0.0572,0.0629,0.0665,0.0687,0.0683,0.066,0.057,0.0567,0.0394,0.0197,0.0076,-0.0025,-0.0077,-0.0195,-0.0195,-0.0193,-0.0286,-0.0283,-0.0225,0,0,0,0,0,0,0.0446,0.049,0.0506,0.0543,0.0566,0.0611,0.0627,0.0607,0.0551,0.0523,0.0396,0.0388,0.0167,0.0249,-0.0028,-0.006,-0.0065,-0.0282,-0.0284,-0.0288,-0.0285,-0.0283,-0.0222,0,0,0,0,0]}]]